TimeEST,TemperatureF,Dew PointF,Humidity,Sea Level PressureIn,VisibilityMPH,Wind Direction,Wind SpeedMPH,Gust SpeedMPH,PrecipitationIn,Events,Conditions,WindDirDegrees,DateUTC
12:53 AM,23.0,-2.9,32,30.53,10.0,NE,5.8,-,N/A,,Overcast,50,2013-02-08 05:53:00
1:53 AM,21.9,-0.0,38,30.50,10.0,ENE,5.8,-,N/A,,Mostly Cloudy,60,2013-02-08 06:53:00
2:53 AM,21.9,6.1,51,30.47,10.0,NE,6.9,-,N/A,,Overcast,50,2013-02-08 07:53:00
3:53 AM,21.0,7.0,55,30.44,10.0,NE,8.1,-,N/A,,Overcast,40,2013-02-08 08:53:00
4:53 AM,19.9,10.9,68,30.44,10.0,ENE,8.1,-,0.00,Snow,Light Snow,70,2013-02-08 09:53:00
5:53 AM,19.0,12.9,77,30.42,4.0,NE,9.2,-,0.00,Snow,Light Snow,40,2013-02-08 10:53:00
6:53 AM,18.0,12.0,78,30.42,4.0,NE,8.1,-,0.00,Snow,Light Snow,40,2013-02-08 11:53:00
7:53 AM,18.0,12.9,81,30.41,6.0,NNE,5.8,-,0.01,Snow,Light Snow,30,2013-02-08 12:53:00
8:53 AM,18.0,12.0,78,30.40,6.0,NE,9.2,-,0.00,Snow,Light Snow,50,2013-02-08 13:53:00
9:53 AM,18.0,12.0,78,30.38,7.0,NE,11.5,-,0.00,Snow,Light Snow,40,2013-02-08 14:53:00
10:36 AM,17.6,12.2,79,30.30,7.0,NNE,15.0,-,0.00,Snow,Light Snow,30,2013-02-08 15:36:00
10:46 AM,17.6,12.2,79,30.30,6.0,NE,9.2,-,0.00,Snow,Light Snow,40,2013-02-08 15:46:00
10:53 AM,18.0,12.0,78,30.36,6.0,NE,15.0,18.4,0.00,Snow,Light Snow,40,2013-02-08 15:53:00
11:17 AM,19.4,12.2,74,30.27,4.0,NE,10.4,-,0.00,Snow,Light Snow,40,2013-02-08 16:17:00
11:53 AM,19.0,12.9,77,30.31,3.0,NNE,13.8,-,0.00,Snow,Light Snow,20,2013-02-08 16:53:00
12:00 PM,19.4,12.2,74,30.24,3.0,NNE,13.8,-,0.00,Snow,Light Snow,20,2013-02-08 17:00:00
12:53 PM,19.9,12.9,74,30.26,5.0,NNE,10.4,21.9,0.00,Snow,Light Snow,30,2013-02-08 17:53:00
1:53 PM,19.9,12.9,74,30.21,7.0,NNE,17.3,25.3,0.00,Snow,Light Snow,30,2013-02-08 18:53:00
2:02 PM,19.4,12.2,74,30.14,1.5,NE,16.1,23.0,0.00,Snow,Light Snow,40,2013-02-08 19:02:00
2:09 PM,19.4,14.0,80,30.14,0.8,NNE,15.0,24.2,0.00,Snow,Light Snow,30,2013-02-08 19:09:00
2:24 PM,19.4,15.8,86,30.13,0.5,NNE,12.7,-,0.00,Fog-Snow,Snow,30,2013-02-08 19:24:00
2:53 PM,19.9,15.1,81,30.17,0.5,NNE,9.2,19.6,0.00,Snow,Snow,30,2013-02-08 19:53:00
3:53 PM,19.0,15.1,85,30.14,0.5,NNE,12.7,21.9,0.01,Fog-Snow,Snow,20,2013-02-08 20:53:00
4:53 PM,19.0,15.1,85,30.09,0.5,North,16.1,21.9,0.01,Fog-Snow,Snow,10,2013-02-08 21:53:00
5:14 PM,17.6,14.0,86,30.01,0.5,NNE,15.0,-,0.00,Fog-Snow,Snow,20,2013-02-08 22:14:00
5:53 PM,19.0,14.0,81,30.05,0.5,NNE,13.8,23.0,0.00,Snow,Snow,20,2013-02-08 22:53:00
6:53 PM,19.0,15.1,85,30.02,0.5,NNE,17.3,23.0,0.01,Fog-Snow,Snow,20,2013-02-08 23:53:00
7:53 PM,19.4,15.1,83,29.96,0.8,NNE,17.3,31.1,0.01,Snow,Light Snow,20,2013-02-09 00:53:00
8:53 PM,18.0,14.0,84,29.93,0.5,NNE,23.0,33.4,0.00,Fog-Snow,Snow,20,2013-02-09 01:53:00
9:53 PM,17.1,12.9,84,29.89,0.5,North,19.6,29.9,0.01,Fog-Snow,Snow,10,2013-02-09 02:53:00
10:17 PM,17.6,12.2,79,29.80,0.2,North,21.9,32.2,0.01,Fog-Snow,Snow,10,2013-02-09 03:17:00
10:53 PM,17.1,12.9,84,29.83,0.2,NNE,21.9,31.1,0.02,Fog-Snow,Snow,20,2013-02-09 03:53:00
11:24 PM,17.6,12.2,79,29.75,0.5,North,20.7,28.8,0.01,Fog-Snow,Snow,10,2013-02-09 04:24:00
11:53 PM,17.1,12.0,81,29.79,0.8,NNE,23.0,35.7,0.01,Fog-Snow,Light Snow,20,2013-02-09 04:53:00